Temp
75 77 80 80 82 81 80 80 80 80 80 79 79 79 79 79 79 80 80 80 80 80 80 80 80 80 80 80 80 79 79 79 79 79 79 79 79 79 80 80 79 78 78
76 77 79 80 81 82 82 80 80 80 79 79 79 79 79 79 79 79 80 80 80 80 80 80 80 80 80 80 80 80 79 79 79 79 79 79 79 79 79 79 78 77 77
75 76 79 79 80 81 81 81 80 79 79 79 79 79 79 79 79 79 79 80 80 80 80 80 80 80 80 80 80 80 80 80 80 79 79 77 76 80 79 79 78 77 77
76 75 76 79 79 80 80 79 79 79 79 79 79 79 79 79 79 80 79 80 80 80 80 80 80 80 80 80 80 80 80 80 80 80 77 79 81 79 79 79 78 77 77
77 75 77 79 79 79 79 79 78 78 78 79 79 79 79 79 79 79 79 80 80 80 80 80 80 80 80 80 79 79 79 79 80 80 75 76 75 80 79 78 78 78 77
76 74 78 79 79 79 79 79 78 78 79 79 79 79 79 79 79 79 79 79 80 80 80 80 80 79 80 79 79 79 79 79 80 73 76 79 74 79 79 79 79 78 77
75 74 77 79 79 79 79 79 79 79 78 79 79 79 79 79 78 79 79 79 80 80 80 80 80 79 79 79 79 79 79 79 77 74 78 77 74 78 79 79 79 78 77
76 75 76 79 79 79 79 78 78 78 78 78 79 79 79 78 78 79 79 79 79 80 80 80 79 79 78 78 78 78 78 79 79 75 77 74 75 78 79 79 78 78 77
79 74 74 75 77 79 78 78 78 78 78 78 78 78 78 78 78 78 78 79 79 79 79 79 79 78 78 78 78 78 78 79 77 74 79 75 77 79 80 79 78 78 77
78 76 71 71 73 72 74 78 78 78 78 78 78 78 78 78 78 78 77 78 79 79 79 78 78 78 78 78 78 78 78 80 75 72 75 75 78 79 80 79 79 78 78
80 77 75 74 71 72 72 76 77 78 78 78 78 78 76 72 73 76 77 78 78 79 79 78 78 78 78 78 78 78 79 75 72 73 73 77 79 80 80 79 79 78 78
79 79 79 77 76 76 80 74 72 75 73 72 73 73 72 71 73 79 78 79 79 79 79 79 79 79 78 76 77 79 79 78 76 74 75 79 79 80 80 79 79 78 78
83 83 82 80 79 80 79 73 73 73 72 73 73 72 71 76 75 77 77 79 74 78 75 78 77 75 75 77 79 79 78 79 77 79 82 79 79 80 80 79 77 77 78
85 86 84 83 82 82 77 75 76 76 75 74 75 75 73 73 74 77 73 74 74 75 73 73 77 77 78 78 78 75 77 81 78 77 77 79 78 80 81 79 79 78 78
87 88 86 85 83 83 77 78 79 79 78 78 78 78 77 75 75 76 77 75 76 76 76 78 78 77 80 79 79 81 80 80 76 75 73 79 78 79 79 79 79 79 78
86 87 88 86 84 81 80 80 81 82 81 80 80 80 79 76 75 76 76 77 78 78 78 79 79 79 79 80 76 81 80 81 78 74 72 77 78 77 79 79 79 79 79
84 86 85 86 84 82 81 81 81 83 84 81 81 80 79 77 76 76 75 75 77 77 81 81 80 80 80 79 77 81 81 82 80 79 78 75 77 77 78 79 79 79 79
82 82 86 90 85 80 78 78 78 79 77 78 79 78 80 78 77 76 75 76 77 77 79 79 75 74 77 73 73 74 77 78 81 81 79 79 78 76 77 78 78 78 79
85 82 84 84 83 81 77 77 77 78 78 78 78 79 79 79 79 75 75 76 77 77 76 75 74 73 71 71 74 73 72 73 76 78 76 76 75 76 73 77 78 77 77
84 86 85 82 83 83 79 76 75 74 75 79 81 80 80 80 80 77 75 74 76 73 72 73 72 72 71 70 76 73 69 70 72 73 73 75 73 73 72 73 73 73 76
84 84 84 80 80 81 80 79 79 79 77 79 77 80 81 80 80 77 76 75 75 73 72 72 71 70 68 69 66 66 65 68 71 70 69 69 71 71 71 70 69 69 71
83 84 85 83 80 81 83 82 81 82 79 82 77 78 80 80 80 79 77 75 74 72 71 70 69 66 66 67 64 59 59 65 66 69 67 69 67 68 71 71 71 70 68
83 83 83 84 81 81 82 81 77 75 74 75 79 76 79 80 79 79 77 75 73 71 69 69 68 66 63 65 65 62 56 55 58 63 65 64 64 64 65 67 69 70 69
72 77 80 81 84 82 81 80 80 80 80 82 83 83 78 80 78 76 75 74 72 70 68 66 67 64 62 61 63 66 63 61 56 55 60 61 62 64 62 64 64 67 69
71 69 69 72 77 80 80 82 81 81 82 75 80 75 76 73 75 76 72 72 69 69 67 66 64 63 62 60 60 60 59 59 58 55 51 55 59 60 62 62 64 64 66
72 68 65 67 70 67 66 66 68 69 74 74 78 74 74 73 73 73 74 71 68 66 66 64 63 62 60 59 59 59 58 56 54 54 51 51 52 57 59 60 61 61 61
MSLP
1012.66 1012.44 1012.50 1012.78 1013.04 1013.33 1013.76 1014.14 1014.39 1014.56 1014.74 1015.00 1015.24 1015.41 1015.52 1015.70 1015.80 1015.86 1015.94 1016.05 1016.12 1016.20 1016.30 1016.34 1016.40 1016.44 1016.44 1016.49 1016.56 1016.64 1016.63 1016.63 1016.62 1016.64 1016.64 1016.66 1016.60 1016.58 1016.38 1016.67 1016.76 1016.97 1017.04
1012.04 1012.50 1012.48 1012.73 1013.09 1013.35 1013.72 1014.13 1014.44 1014.62 1014.92 1015.14 1015.37 1015.60 1015.83 1015.99 1016.07 1016.12 1016.18 1016.28 1016.36 1016.44 1016.56 1016.60 1016.62 1016.66 1016.66 1016.63 1016.71 1016.74 1016.79 1016.88 1016.89 1016.92 1016.93 1016.89 1016.83 1016.68 1016.68 1016.74 1016.87 1017.07 1017.15
1011.97 1012.42 1012.58 1012.88 1013.17 1013.50 1013.79 1014.17 1014.48 1014.81 1015.09 1015.38 1015.57 1015.76 1015.98 1016.19 1016.27 1016.36 1016.44 1016.46 1016.55 1016.67 1016.78 1016.79 1016.76 1016.79 1016.73 1016.62 1016.69 1016.74 1016.74 1016.86 1016.92 1017.02 1017.06 1017.08 1017.01 1016.87 1016.71 1016.85 1016.86 1017.02 1017.08
1011.54 1012.27 1012.61 1012.94 1013.24 1013.58 1013.92 1014.36 1014.63 1014.92 1015.24 1015.46 1015.75 1015.94 1016.10 1016.29 1016.44 1016.50 1016.64 1016.69 1016.76 1016.85 1016.92 1016.94 1016.93 1016.94 1016.82 1016.71 1016.63 1016.60 1016.64 1016.76 1016.78 1016.78 1016.84 1016.88 1016.82 1016.94 1016.75 1016.84 1016.88 1017.02 1017.15
1011.63 1012.39 1012.70 1012.97 1013.30 1013.68 1014.06 1014.43 1014.71 1015.00 1015.32 1015.50 1015.78 1016.04 1016.23 1016.41 1016.64 1016.78 1016.78 1016.84 1016.93 1017.05 1017.03 1017.03 1017.03 1017.03 1016.89 1016.76 1016.68 1016.55 1016.43 1016.42 1016.39 1016.52 1016.41 1016.39 1016.59 1016.68 1016.68 1016.79 1016.91 1017.01 1017.09
1012.01 1012.60 1012.87 1013.05 1013.36 1013.72 1014.06 1014.47 1014.83 1015.11 1015.39 1015.66 1015.94 1016.09 1016.37 1016.51 1016.69 1016.86 1016.95 1016.98 1017.03 1017.13 1017.24 1017.26 1017.11 1016.99 1016.89 1016.75 1016.57 1016.59 1016.45 1016.46 1016.55 1016.63 1016.23 1016.16 1016.36 1016.28 1016.38 1016.63 1016.75 1016.95 1017.13
1012.26 1012.92 1013.14 1013.31 1013.56 1013.81 1014.14 1014.51 1014.91 1015.18 1015.52 1015.77 1016.06 1016.26 1016.42 1016.58 1016.76 1016.88 1017.08 1017.10 1017.19 1017.28 1017.30 1017.25 1017.16 1016.98 1016.88 1016.68 1016.39 1016.51 1016.52 1016.62 1016.43 1016.54 1016.38 1016.19 1016.42 1016.10 1016.07 1016.23 1016.61 1016.80 1017.00
1012.08 1012.84 1013.24 1013.56 1013.83 1014.00 1014.22 1014.55 1014.93 1015.30 1015.48 1015.88 1016.10 1016.36 1016.62 1016.64 1016.80 1016.90 1017.07 1017.17 1017.20 1017.17 1017.25 1017.24 1017.12 1016.86 1016.70 1016.52 1016.51 1016.37 1016.36 1016.50 1016.36 1016.26 1015.76 1015.84 1015.96 1015.88 1015.91 1015.92 1016.04 1016.53 1016.81
1011.81 1012.78 1013.35 1013.70 1013.98 1014.19 1014.46 1014.68 1014.93 1015.35 1015.69 1015.88 1016.19 1016.30 1016.59 1016.72 1016.81 1016.93 1017.03 1017.10 1017.16 1017.07 1017.11 1017.07 1016.90 1016.54 1016.49 1016.47 1016.40 1016.23 1016.15 1016.44 1016.00 1017.08 1016.37 1016.08 1016.33 1015.97 1015.94 1016.04 1015.92 1016.00 1016.46
1012.13 1012.83 1013.45 1013.78 1014.06 1014.39 1014.58 1014.80 1015.02 1015.45 1015.65 1015.93 1016.15 1016.32 1016.48 1016.66 1016.78 1016.80 1016.93 1016.94 1017.03 1016.93 1016.88 1016.74 1016.44 1016.31 1016.46 1016.43 1016.31 1016.16 1015.83 1016.30 1016.71 1016.82 1016.33 1015.81 1016.10 1016.45 1016.26 1016.10 1016.08 1015.93 1016.09
1011.90 1012.61 1013.22 1013.66 1014.09 1014.36 1014.64 1014.86 1015.04 1015.39 1015.63 1015.86 1016.12 1016.24 1016.38 1016.52 1016.60 1016.68 1016.66 1016.63 1016.55 1016.44 1016.36 1016.24 1016.07 1016.00 1016.21 1016.20 1016.00 1015.56 1015.35 1015.91 1016.70 1015.83 1015.95 1015.56 1015.19 1015.14 1015.60 1015.92 1015.94 1015.94 1015.84
1011.41 1012.08 1012.68 1013.24 1013.72 1014.10 1014.19 1014.66 1014.98 1015.26 1015.50 1015.79 1015.97 1016.10 1016.17 1016.21 1016.26 1016.26 1016.20 1016.06 1016.03 1016.00 1016.03 1015.86 1015.78 1015.81 1015.88 1015.84 1015.70 1015.30 1015.08 1015.32 1015.91 1015.44 1015.43 1015.33 1015.16 1015.08 1015.30 1015.72 1015.97 1015.89 1015.74
1010.25 1011.05 1011.64 1012.37 1012.90 1013.36 1013.65 1014.40 1014.77 1015.10 1015.31 1015.51 1015.58 1015.66 1015.72 1015.84 1016.00 1015.92 1015.67 1015.63 1015.85 1015.73 1015.86 1015.61 1015.50 1015.64 1015.48 1015.45 1015.40 1015.26 1014.92 1014.72 1014.86 1014.67 1014.52 1014.77 1014.90 1014.93 1015.32 1015.82 1015.70 1015.60 1015.51
1009.63 1009.99 1010.73 1011.35 1012.04 1012.47 1013.10 1013.60 1013.99 1014.38 1014.65 1014.85 1014.88 1015.01 1015.24 1015.42 1015.36 1015.15 1015.38 1015.37 1015.48 1015.47 1015.62 1015.69 1015.26 1014.99 1015.00 1015.14 1015.02 1014.74 1014.76 1014.29 1014.67 1014.55 1014.78 1014.64 1014.82 1015.00 1015.28 1015.32 1015.44 1015.48 1015.44
1008.74 1009.20 1009.94 1010.66 1011.14 1011.67 1012.50 1012.75 1013.01 1013.32 1013.60 1013.64 1013.96 1014.14 1014.35 1014.60 1014.74 1014.49 1014.58 1014.90 1014.92 1014.97 1014.96 1015.03 1014.97 1014.70 1014.63 1014.70 1014.44 1014.37 1014.56 1014.25 1014.20 1014.15 1014.67 1014.90 1014.80 1015.05 1015.31 1015.44 1015.38 1015.28 1015.14
1007.86 1008.43 1009.07 1009.88 1010.40 1010.89 1011.61 1011.97 1012.11 1012.26 1012.52 1012.81 1013.00 1013.19 1013.51 1013.71 1013.91 1014.05 1014.22 1014.12 1014.08 1014.20 1014.14 1014.07 1014.09 1014.23 1014.28 1014.15 1014.47 1014.11 1014.24 1014.11 1014.32 1014.48 1015.01 1014.68 1014.69 1014.94 1014.99 1015.04 1015.43 1014.88 1015.07
1007.19 1007.83 1008.44 1009.04 1009.66 1010.04 1010.73 1010.99 1011.15 1011.20 1011.48 1011.93 1012.13 1012.42 1012.68 1013.00 1013.36 1013.52 1013.80 1014.05 1013.89 1013.92 1013.95 1014.04 1013.95 1013.96 1014.18 1014.32 1014.45 1014.35 1014.04 1014.10 1014.12 1014.07 1014.39 1014.36 1014.48 1014.64 1014.87 1014.85 1015.03 1014.98 1014.95
1006.63 1007.35 1007.85 1008.31 1008.86 1009.15 1009.81 1010.30 1010.40 1010.32 1010.66 1011.04 1011.27 1011.69 1011.99 1012.28 1012.58 1012.97 1013.36 1013.53 1013.34 1013.46 1013.57 1013.83 1014.09 1014.32 1014.37 1014.39 1014.54 1014.49 1014.41 1014.25 1013.86 1013.94 1014.29 1014.42 1014.41 1014.75 1014.81 1014.80 1014.85 1015.10 1014.80
1005.71 1006.31 1007.08 1007.66 1008.26 1008.74 1009.25 1009.96 1010.28 1010.36 1010.52 1010.60 1010.81 1011.15 1011.35 1011.55 1011.86 1012.41 1012.94 1013.02 1013.02 1013.30 1013.55 1013.74 1014.24 1014.42 1014.58 1014.59 1014.41 1014.44 1014.61 1014.66 1014.52 1014.27 1014.46 1014.54 1014.73 1014.69 1014.74 1014.81 1015.01 1015.08 1015.04
1004.42 1005.08 1005.84 1006.78 1007.51 1008.37 1009.10 1009.87 1010.56 1011.02 1011.18 1010.98 1011.04 1011.11 1011.15 1011.18 1011.32 1011.74 1012.19 1012.56 1012.64 1013.10 1013.44 1013.76 1014.18 1014.29 1014.39 1014.63 1014.58 1014.53 1014.62 1014.44 1014.62 1014.62 1014.88 1014.78 1014.84 1014.73 1014.66 1014.96 1015.04 1015.18 1015.05
1004.28 1004.85 1005.42 1006.27 1006.83 1007.80 1008.75 1009.70 1010.30 1010.27 1010.34 1010.49 1010.28 1010.43 1011.02 1011.27 1011.21 1011.44 1011.80 1011.99 1012.44 1012.82 1013.22 1013.55 1014.01 1014.39 1014.65 1014.58 1015.06 1015.04 1014.94 1014.69 1014.78 1014.88 1015.07 1015.17 1015.06 1015.02 1014.87 1015.11 1015.14 1015.16 1015.36
1003.64 1003.87 1004.60 1005.28 1006.30 1006.92 1007.42 1008.06 1008.94 1009.35 1009.85 1009.86 1010.35 1010.15 1010.00 1010.45 1011.24 1011.38 1011.57 1011.73 1011.96 1012.67 1013.04 1013.45 1013.91 1014.51 1014.75 1014.70 1015.34 1015.90 1016.15 1015.78 1015.50 1015.52 1015.55 1015.68 1015.83 1015.49 1015.14 1015.13 1015.02 1015.13 1015.39
1004.63 1004.14 1004.47 1004.68 1005.23 1005.96 1006.69 1007.56 1008.57 1009.57 1009.85 1010.17 1009.85 1009.93 1009.61 1009.62 1010.02 1011.02 1011.40 1011.63 1011.84 1012.30 1012.99 1013.36 1013.75 1014.29 1014.93 1014.86 1014.80 1015.48 1016.45 1016.95 1016.83 1016.42 1016.28 1016.16 1016.07 1016.07 1015.73 1015.30 1015.07 1015.10 1015.20
1009.17 1008.20 1008.32 1007.46 1005.18 1005.02 1005.80 1006.70 1007.06 1007.71 1008.63 1008.40 1008.68 1009.11 1009.56 1009.20 1009.77 1010.03 1011.04 1011.70 1011.98 1012.27 1012.78 1013.30 1013.62 1014.19 1014.75 1015.31 1015.17 1015.06 1015.48 1016.11 1016.98 1017.40 1017.11 1016.88 1016.41 1016.44 1016.21 1015.63 1015.25 1015.17 1015.41
1010.72 1010.61 1009.66 1009.31 1008.48 1008.64 1010.38 1006.48 1006.99 1007.13 1007.52 1008.38 1008.68 1009.13 1009.49 1009.48 1009.54 1009.79 1010.64 1011.62 1011.97 1012.33 1012.70 1013.14 1013.63 1013.99 1014.54 1015.13 1015.32 1015.64 1015.88 1016.20 1016.64 1017.41 1017.98 1017.70 1016.93 1016.57 1016.41 1016.25 1015.57 1015.69 1015.70
1011.69 1011.42 1010.62 1009.85 1008.98 1009.16 1008.81 1010.68 1010.50 1012.14 1011.65 1008.59 1008.17 1008.99 1009.55 1009.53 1009.35 1009.84 1010.40 1011.04 1011.84 1012.23 1012.64 1012.99 1013.52 1013.92 1014.41 1014.96 1015.40 1015.70 1015.92 1016.46 1017.14 1017.53 1018.17 1018.13 1018.02 1017.20 1016.72 1016.70 1016.40 1016.26 1016.11
Wind_Speed
8 12 19 17 15 16 18 16 16 14 13 14 13 13 14 14 13 15 15 14 13 14 14 14 14 13 13 13 13 13 11 11 11 11 11 10 11 11 14 14 12 10 12
15 11 19 18 16 17 17 18 14 14 13 13 14 13 13 13 13 13 13 13 12 13 12 12 11 11 10 9 9 9 8 7 6 7 7 8 8 11 12 13 13 10 11
15 12 14 18 17 16 17 16 15 13 13 13 13 14 13 12 12 11 11 11 12 12 10 10 9 8 7 6 6 6 5 4 3 3 4 2 3 8 11 11 12 10 9
17 10 12 18 17 17 16 16 14 14 14 14 13 13 13 12 11 10 9 9 10 10 9 8 7 6 5 5 5 6 5 4 3 3 4 5 4 7 10 10 9 8 7
15 11 13 18 17 17 17 16 15 15 14 14 13 13 12 11 10 8 8 8 8 7 6 5 5 3 3 4 6 7 8 9 9 7 5 5 6 9 10 9 8 7 7
13 11 15 17 17 17 17 16 15 15 14 14 13 13 11 11 8 8 7 6 6 5 3 2 2 2 4 7 8 7 8 9 12 8 6 5 6 13 12 10 9 8 7
13 10 12 16 16 17 17 16 15 15 12 12 11 12 11 10 7 7 6 5 5 3 2 0 3 4 6 8 10 9 8 8 6 4 9 4 6 13 14 13 10 9 8
16 11 10 15 15 15 16 16 15 13 13 12 11 10 10 9 7 6 5 4 4 3 2 4 5 6 9 11 11 12 10 10 7 4 4 6 10 14 14 14 13 10 8
16 12 8 8 12 15 14 14 14 13 11 11 10 10 9 8 7 7 6 5 5 4 6 6 8 10 10 12 11 12 12 9 10 5 5 3 6 11 12 12 13 12 10
14 12 8 7 6 6 8 15 14 13 12 11 10 10 9 9 9 8 8 8 8 8 9 10 12 12 11 12 13 13 14 10 5 5 4 4 8 9 9 11 11 11 10
14 13 10 9 7 7 6 9 12 14 13 12 11 11 8 4 6 8 9 12 14 13 14 14 14 13 11 13 15 18 16 2 3 5 4 11 15 14 13 12 11 10 9
17 16 14 12 11 10 10 8 6 7 5 5 5 6 5 6 6 10 12 17 16 15 14 15 15 14 11 6 6 11 5 2 6 8 5 15 11 13 13 11 9 8 6
20 15 17 16 14 13 10 7 5 4 4 5 8 8 8 6 6 7 6 5 4 11 5 8 8 5 8 6 4 5 3 5 3 4 7 13 9 13 10 9 9 7 7
19 20 19 19 16 15 10 9 9 7 7 7 9 10 7 5 5 6 4 5 6 4 5 6 5 6 7 5 6 5 2 2 3 2 1 11 11 9 7 3 2 1 4
19 19 20 19 16 13 13 9 10 10 9 11 10 11 8 6 5 4 4 4 5 5 5 6 6 4 5 3 3 1 3 1 3 3 1 12 9 5 7 4 5 3 4
14 18 20 20 15 16 13 13 11 10 11 10 9 10 11 6 5 4 3 3 3 3 3 3 2 1 1 1 3 4 5 3 4 4 2 4 8 7 6 6 3 4 3
10 14 20 19 15 17 15 13 10 11 11 10 10 12 10 7 6 5 3 2 4 3 5 2 3 3 3 3 4 4 2 0 4 3 4 4 4 6 5 5 6 5 6
12 13 18 17 16 11 10 7 5 7 6 6 8 8 12 9 8 5 4 4 4 2 2 3 2 2 2 3 2 3 4 5 2 2 3 2 3 3 1 7 6 5 9
16 15 18 17 17 13 9 6 5 7 6 6 5 8 11 10 8 6 5 5 3 2 2 3 2 2 2 3 3 3 4 3 3 3 2 6 6 4 4 2 8 11 11
18 20 19 15 18 16 8 5 3 2 3 5 7 7 11 9 10 8 6 6 4 3 3 3 2 0 2 2 2 4 4 4 2 4 5 5 4 6 7 7 4 4 15
15 18 18 16 17 14 10 10 9 11 5 6 6 10 13 10 11 10 7 6 5 5 4 5 3 3 2 1 3 4 4 3 5 4 5 5 6 6 6 4 3 4 5
20 22 21 19 18 16 13 12 9 10 6 9 4 6 12 13 11 9 9 7 6 5 6 5 4 2 1 1 3 3 4 5 5 5 5 5 6 4 5 4 4 5 5
10 17 18 20 19 18 17 10 5 2 1 4 8 5 10 14 12 10 9 6 6 5 5 5 5 6 3 1 2 5 3 2 2 3 5 5 6 4 4 3 2 4 6
25 18 19 13 14 19 18 15 20 14 13 12 11 9 7 13 8 8 7 6 6 5 7 5 5 4 4 2 3 3 3 5 3 3 3 4 4 5 6 5 4 1 6
24 21 17 14 9 7 17 13 13 15 10 4 6 7 7 5 8 8 7 8 6 6 6 7 6 6 3 3 3 2 3 4 5 3 0 5 5 4 5 5 5 4 5
20 20 19 13 6 9 15 19 17 23 21 4 9 8 7 6 6 7 8 8 6 7 8 7 6 8 6 6 4 4 3 4 2 4 2 1 2 4 4 3 4 4 4
Wind_Direction
126 136 128 126 127 126 122 121 119 114 104 107 106 100 92 95 100 99 98 97 94 91 87 82 78 74 70 72 72 71 77 86 90 91 94 97 97 86 64 77 88 93 94
131 139 131 129 128 130 129 129 125 119 113 115 112 111 107 105 106 105 105 101 98 96 90 86 82 77 70 62 61 63 73 75 84 102 110 109 103 101 95 95 98 106 85
129 137 131 132 130 132 130 130 129 122 120 119 119 117 115 112 110 112 108 106 103 99 97 95 87 77 65 45 32 36 37 51 102 167 183 189 131 118 108 105 108 111 108
133 136 135 136 136 133 133 135 135 129 126 125 125 123 119 116 115 108 105 107 108 107 103 94 82 67 43 12 3 356 344 353 337 284 234 217 229 158 126 123 123 122 119
123 133 141 137 137 138 138 138 135 132 133 133 132 128 125 124 124 122 119 115 113 109 104 96 86 58 6 336 331 328 329 329 328 319 279 210 178 171 152 142 139 135 121
118 128 141 141 140 140 140 139 138 138 139 139 138 134 135 135 132 127 126 122 125 119 105 92 74 17 327 318 309 307 309 314 333 332 316 164 173 171 162 162 145 147 142
121 135 140 143 143 143 143 142 143 143 142 143 144 143 146 142 140 139 139 138 135 126 134 310 315 320 305 293 287 290 298 316 315 324 326 146 190 174 171 164 164 162 162
129 136 144 145 148 147 148 147 147 147 147 151 151 152 156 153 160 158 159 160 168 173 231 264 281 281 278 280 291 300 301 318 309 285 295 207 187 184 182 175 168 173 177
130 131 137 146 155 151 149 150 150 151 157 156 162 160 166 170 179 179 182 192 207 214 248 266 266 263 270 278 282 287 294 299 301 339 339 41 224 193 192 190 181 178 187
130 136 148 145 146 145 155 156 155 160 163 166 171 170 176 187 199 195 201 210 218 220 236 249 255 262 271 280 288 283 280 291 304 338 302 255 198 243 230 209 202 186 188
143 146 153 156 161 156 150 166 163 171 174 174 182 184 189 199 212 209 209 219 220 217 223 236 247 255 262 271 273 276 272 174 149 194 246 273 198 197 219 220 211 204 195
153 160 160 162 170 166 163 161 161 180 174 178 185 194 200 213 211 208 212 220 222 222 228 241 249 255 261 256 267 275 263 184 177 226 216 242 193 200 211 216 219 213 211
166 164 167 167 175 173 160 159 170 182 183 192 199 194 209 213 226 212 218 220 212 229 232 243 258 244 242 239 258 278 253 245 224 209 190 187 214 203 205 214 218 214 217
168 172 172 173 173 176 160 169 177 181 191 195 205 199 204 208 220 207 200 197 203 222 221 240 250 241 245 244 252 345 279 263 98 139 326 203 204 195 224 213 154 147 296
172 174 173 173 176 167 169 177 180 191 192 197 196 198 198 211 215 201 205 180 203 214 222 226 231 206 223 193 50 280 251 336 84 15 63 218 199 173 198 158 161 159 263
165 168 167 176 175 159 173 183 189 189 196 194 193 193 197 195 205 203 198 237 240 218 252 281 265 14 334 62 341 327 310 51 100 196 202 216 154 181 170 150 218 186 238
170 155 164 174 175 159 183 189 189 189 193 191 187 185 190 186 192 198 179 221 237 240 247 247 15 342 15 12 20 347 330 151 144 90 103 103 164 173 171 165 200 242 250
158 159 166 174 180 170 169 190 182 180 172 179 173 177 187 186 184 188 187 215 241 232 182 58 62 49 53 44 348 345 19 346 5 72 84 115 95 89 288 192 203 311 323
168 164 168 170 179 180 171 179 193 194 186 186 180 174 182 179 180 171 193 217 238 195 96 93 75 120 50 341 325 354 354 324 338 70 88 53 65 70 59 295 76 54 38
171 175 173 169 177 180 174 163 193 265 237 197 202 188 185 184 180 180 189 189 181 147 133 101 121 358 105 310 348 5 334 326 139 88 60 90 71 50 39 84 90 75 71
176 175 178 165 176 171 172 179 193 212 207 210 192 187 189 191 189 183 194 195 176 165 157 141 111 73 14 91 54 345 337 38 41 51 75 54 39 29 67 94 94 66 72
183 185 182 181 173 180 184 186 195 200 211 209 209 198 183 185 194 195 189 188 167 145 141 132 131 118 78 93 131 94 16 347 1 33 63 53 22 18 29 69 98 114 97
227 189 190 187 177 182 188 177 159 128 183 197 213 207 193 184 187 195 194 174 161 143 143 149 140 130 142 312 128 138 87 181 351 348 48 30 24 14 7 7 343 135 118
10 13 350 325 202 185 179 182 185 191 201 210 205 206 193 184 180 158 160 153 144 138 138 141 131 126 114 126 52 62 104 145 144 352 353 359 28 10 346 334 355 126 95
27 15 1 347 319 323 322 199 194 196 202 179 195 175 178 148 141 148 148 132 140 140 135 136 124 120 122 125 123 138 94 76 73 119 303 326 358 348 346 345 37 75 82
28 20 10 351 31 42 43 333 14 356 323 233 180 171 168 159 158 144 141 148 134 135 144 136 128 120 121 105 104 91 117 132 133 100 102 298 269 310 325 357 39 46 56